{"data":{"norad_id":53746,"epoch":"2026-05-24T20:55:33.438720Z","epoch_age_seconds":83134,"freshness":"FRESH","line1":"1 53746U 22107AY  26144.87191480  .00000233  00000+0  32742-4 0  9991","line2":"2 53746  53.2169 282.1713 0001866  52.6829 307.4333 15.08837697206094","mean_motion":15.08837697,"eccentricity":0.0001866,"inclination_deg":53.2169,"raan_deg":282.1713,"arg_perigee_deg":52.6829,"mean_anomaly_deg":307.4333,"bstar":3.2742e-5,"rev_number":20609,"period_min":95.437700347965,"perigee_km":538.4595505286,"apogee_km":541.04130611685,"semimajor_km":6917.8874283227,"source":"CELESTRAK","updated_at":"2026-05-25T13:38:17.540242Z"}}